Location: Unspecified
(0.0000°N, 0.0000°E)
Time: 04:45:46

YUBILEINY - Pass Details

Date: 09 December 2017
Orbit: 1478 x 1509 km, 82.5° (Epoch: 20 March)

Event Time Altitude Azimuth Distance (km) Brightness Sun altitude
Rises 02:07:47 0° 156° (SSE) 4,610 ? -49.9°
Reaches altitude 10° 02:11:26 10° 143° (SE) 3,633 ? -49.2°
Maximum altitude 02:18:02 24° 93° (E) 2,702 ? -47.9°
Enters shadow 02:23:06 14° 51° (NE) 3,297 ? -46.8°
